This is the latest recevied weather packets stored in our database for station/object AD0YN. If no packets are shown the sender has not sent any weather packets the latest 10 day(s).
| Time | Temp. | Humidity | Pressure | Rain* | Wind** | Luminosity | Snow |
|---|---|---|---|---|---|---|---|
| 1777048851 | 15.56° C | 81% | 1010 hPa | 0 mm | - | 465 W/m² | - |
| 1777048547 | 15° C | 79% | 1009.8 hPa | 0 mm | - | 430 W/m² | - |
| 1777048246 | 15° C | 79% | 1009.8 hPa | 0 mm | - | 535 W/m² | - |
| 1777047942 | 15° C | 80% | 1009.7 hPa | 0 mm | - | 465 W/m² | - |
| 1777047638 | 15° C | 80% | 1009.5 hPa | 0 mm | - | 340 W/m² | - |
| 1777047334 | 14.44° C | 80% | 1009.5 hPa | 0 mm | - | 366 W/m² | - |
| 1777047030 | 14.44° C | 82% | 1009.6 hPa | 0 mm | - | 384 W/m² | - |
| 1777046727 | 14.44° C | 83% | 1009.5 hPa | 0 mm | - | 389 W/m² | - |
| 1777046422 | 14.44° C | 81% | 1009.4 hPa | 0 mm | - | 304 W/m² | - |
| 1777046118 | 14.44° C | 83% | 1009.2 hPa | 0 mm | - | 289 W/m² | - |
| 1777045815 | 14.44° C | 83% | 1009.3 hPa | 0 mm | - | 282 W/m² | - |
| 1777045511 | 14.44° C | 82% | 1009 hPa | 0 mm | - | 334 W/m² | - |
| 1777045206 | 14.44° C | 82% | 1009.1 hPa | 0 mm | - | 294 W/m² | - |
| 1777044903 | 14.44° C | 81% | 1009.1 hPa | 0 mm | - | 343 W/m² | - |
| 1777044597 | 14.44° C | 83% | 1008.9 hPa | 0 mm | - | 352 W/m² | - |
| 1777044295 | 14.44° C | 83% | 1008.8 hPa | 0 mm | - | 309 W/m² | - |
| 1777043995 | 13.89° C | 84% | 1009 hPa | 0 mm | - | 315 W/m² | - |
| 1777043692 | 13.89° C | 82% | 1008.8 hPa | 0 mm | - | 297 W/m² | - |
| 1777043389 | 13.89° C | 83% | 1008.8 hPa | 0 mm | - | 275 W/m² | - |
| 1777043084 | 13.89° C | 82% | 1008.5 hPa | 0 mm | - | 310 W/m² | - |
| 1777042779 | 13.89° C | 81% | 1008.5 hPa | 0 mm | - | 291 W/m² | - |
| 1777042475 | 13.89° C | 84% | 1008.5 hPa | 0 mm | - | 303 W/m² | - |
| 1777042172 | 14.44° C | 83% | 1008.5 hPa | 0 mm | - | 281 W/m² | - |
| 1777041868 | 13.89° C | 85% | 1008.5 hPa | 0 mm | - | 330 W/m² | - |
| 1777041565 | 14.44° C | 83% | 1008.3 hPa | 0 mm | - | 341 W/m² | - |
* Rain latest hour (hover to see other rain measurements)
** Current wind speed in m/s (hover to see current wind gust speed)